Regional Weather Roundup
Issued by NWS

Home | Current Version | Previous Version | Graphics & Text | Print | Product List | Glossary On
Versions: 1 2 3 4 5 6 7 8 9 10 11 12 13 14 15 16 17 18 19 20 21 22 23 24 25 26 27 28 29 30 31 32 33 34 35 36 37 38 39 40
000
ASUS43 KDMX 220807
RWRIA

WEATHER ROUNDUP FOR IOWA
NATIONAL WEATHER SERVICE DES MOINES IA
300 AM CDT WED OCT 22 2014

NOTE: "FAIR" INDICATES FEW OR NO CLOUDS BELOW 12,000 FEET WITH NO
SIGNIFICANT WEATHER AND/OR OBSTRUCTIONS TO VISIBILITY.

* - THESE STATIONS ARE NOT NWS STATIONS...THUS NOT UNDER NWS
QUALITY CONTROL.  THEY ALSO DO NOT REPORT WEATHER SUCH
AS PRECIPITATION OR FOG.

IAZ001>003-012>014-020>022-031>034-043>046-220900-
   NORTHWEST IOWA

CITY           SKY/WX    TMP DP  RH WIND       PRES   REMARKS
CARROLL *      CLOUDY    45  43  93 SE6       30.15R
CHEROKEE *     MOCLDY    50  45  81 S8        30.10S
DENISON *      CLOUDY    54  45  71 SE9G18    30.10R
LE MARS *      CLOUDY    55  45  67 SE14G22   30.06S
ORANGE CITY *  MOCLDY    54  45  71 SE10G16   30.06S
SHELDON *      CLOUDY    52  43  71 SE15G21   30.06S
SIOUX CITY     CLEAR     54  45  71 SE9       30.06S
SPENCER        CLEAR     47  40  76 SE13      30.11S
STORM LAKE *   MOCLDY    46  41  81 SE16      30.12S
$$

IAZ055>058-069>071-079>083-090>094-220900-
   SOUTHWEST IOWA

CITY           SKY/WX    TMP DP  RH WIND       PRES   REMARKS
ATLANTIC *     CLOUDY    54  43  66 VRB5      30.13R
AUDUBON *      MOCLDY    52  41  66 SE7       30.15R
CLARINDA *     PTCLDY    54  45  71 SE6G13    30.15R
COUNCIL BLFS * CLOUDY    55  46  71 SE16G22   30.09R
CRESTON *      MOCLDY    46  43  87 SE9G17    30.16S
HARLAN  *      MOCLDY    54  45  71 S10G17    30.15R
LAMONI         CLEAR     48  40  73 SE7       30.17S
RED OAK *      CLOUDY    54  45  71 SE10      30.12R
SHENANDOAH *   CLOUDY    55  45  67 SE10      30.12R
$$

IAZ047>049-059>061-072>074-084-220900-
   CENTRAL IOWA

CITY           SKY/WX    TMP DP  RH WIND       PRES   REMARKS
AMES           CLEAR     44  37  76 SE7       30.20R
ANKENY *       CLEAR     45  39  81 SE6       30.20R
CHARITON *     MOCLDY    46  39  76 SE9       30.20R
DES MOINES     CLEAR     48  38  68 SE10      30.20R
GRINNELL*      CLEAR     41  37  87 E9        30.23S
KNOXVILLE *    CLEAR     45  37  76 SE9       30.20R
MARSHALLTOWN   CLEAR     42  38  85 SE12      30.22R
PELLA *        CLEAR     43  37  81 SE8       30.23S
PERRY *          N/A     45  41  87 SE7       30.17S
$$

IAZ004>006-015-016-023>025-035-036-220900-
   NORTH CENTRAL IOWA

CITY           SKY/WX    TMP DP  RH WIND       PRES   REMARKS
ALGONA *       CLEAR     45  39  81 SE13      30.16S
CLARION *      CLEAR     43  39  87 SE12G18   30.19R
ESTHERVILLE    CLEAR     43  38  82 SE17      30.13R
FORT DODGE *   CLEAR     45  36  70 SE8       30.17S
FOREST CITY *  CLEAR     41  37  87 SE13      30.19R
IOWA FALLS *     N/A     39  37  93 SE8       30.21S WCI  34
$$

IAZ007>011-017>019-026>030-037>042-050>054-066-220900-
   NORTHEAST IOWA

CITY           SKY/WX    TMP DP  RH WIND       PRES   REMARKS
CEDAR RAPIDS   CLEAR     38  36  92 SE7       30.26R WCI  33
CHARLES CITY * CLEAR     39  37  93 SE9       30.24R WCI  33
CLINTON *      CLEAR     36  30  80 E6        30.31S WCI  31
DECORAH *      CLEAR     37  36  93 SE8G16    30.24S WCI  31
DUBUQUE        CLEAR     37  35  92 SE7       30.28R WCI  32
MONTICELLO *   CLEAR     37  37 100 SE7       30.27S WCI  32
OELWEIN *      CLEAR     39  37  93 SE12      30.26R WCI  32
WATERLOO       CLEAR     40  36  86 SE9       30.24R WCI  34
$$

IAZ064-065-067-068-078-220900-
   EAST CENTRAL IOWA

CITY           SKY/WX    TMP DP  RH WIND       PRES   REMARKS
DAVENPORT      CLEAR     36  32  85 E8        30.28R WCI  30
IOWA CITY      CLEAR     38  36  92 SE5       30.28R WCI  34
MT. PLEASANT * CLEAR     39  39 100 SE5       30.26R
MUSCATINE *    CLEAR     39  36  87 CALM      30.28R
QUAD CITIES    CLEAR     34  33  96 E3        30.28R
$$

IAZ062-063-075>077-085>089-095>099-220900-
   SOUTHEAST IOWA

CITY           SKY/WX    TMP DP  RH WIND       PRES   REMARKS
BURLINGTON     CLEAR     42  39  89 E6        30.26R
FAIRFIELD *      N/A     41  37  87 SE7       30.25R
FORT MADISON * CLEAR     45  43  93 E9        30.26R
KEOKUK *       CLEAR     43  41  93 E12       30.24R
OSKALOOSA *      N/A     41  37  87 SE7       30.24R
CENTERVILLE *  CLEAR     43  39  87 SE5       30.23R
WASHINGTON *   CLEAR     39  39 100 SE6       30.26R WCI  35
$$

ABBREVIATIONS USED IN REMARKS
   TC - TEMPERATURES IN CELSIUS
  WCI - WIND CHILL INDEX
   HX - HEAT INDEX
  VSB - VISIBILITY
$$




USA.gov is the U.S. government's official web portal to all federal, state and local government web resources and services.